Location: Central Falls
(41.8900°N, 71.3929°W)
Time: 13:23:51
(UTC+00:00)

Vanguard 2 Rocket - Pass Details

Date: 06 December 2023
Orbit: 554 x 3310 km, 32.9° (Epoch: 22 February)

Event Time Altitude Azimuth Distance (km) Brightness Sun altitude
Rises 23:01:09 0° 274° (W) 7,110 12.8 -19.2°
Reaches altitude 10° 23:05:55 10° 271° (W) 6,213 12.3 -20.1°
Maximum altitude 23:25:09 54° 202° (SSW) 3,527 9.9 -23.6°
Enters shadow 23:39:21 12° 131° (SE) 4,802 10.2 -26.2°
